San Luis Potosi, Mexico

11:44 PM CDT on August 24, 2016 (GMT -0500)
Ponciano Arriaga International

Weather History for MMSP - March, 2013

Change the Weather History Date:

Friday, March 8, 2013

  Actual Average Record
Temperature  
Mean Temperature 62 °F -  
Max Temperature 84 °F 77 °F 87 °F (2003)
Min Temperature 41 °F 46 °F 35 °F (2008)
Degree Days  
Heating Degree Days 2    
Growing Degree Days 12 (Base 50)    
Moisture  
Dew Point 37 °F    
Average Humidity 42    
Maximum Humidity 93    
Minimum Humidity 15    
Precipitation  
Precipitation 0.00 in - - ()
Sea Level Pressure  
Sea Level Pressure 30.07 in    
Wind  
Wind Speed 4 mph ()    
Max Wind Speed 17 mph    
Max Gust Speed 23 mph    
Visibility 10.8 miles    
Events      
Averages and records for this station are not official NWS values.
T = Trace of Precipitation, MM = Missing Value Source: Averaged Metar Reports

Daily Weather History Graph

Daily Weather History Graph

Search for Another Location

Airport or City:

Trip Planner

Search our weather history database for the weather conditions in past years. The results will help you decide how hot, cold, wet, or windy it might be!

Date:

Astronomy

Mar. 08, 2013 Rise Set
Actual Time 6:58 AM CST 6:50 PM CST
Civil Twilight 6:36 AM CST 7:12 PM CST
Nautical Twilight 6:10 AM CST 7:38 PM CST
Astronomical Twilight 5:44 AM CST 8:04 PM CST
Moon 4:25 AM CST (3/8) 4:04 PM CST (3/8)
Length of Visible Light 12h 36m
Length of Day
11h 52m
Waning Crescent, 11% of the Moon is Illuminated
Mar 8
Waning Crescent
Mar 11
New
Mar 19
First Quarter
Mar 27
Full
Apr 2
Last Quarter

Hourly Weather History & Observations

Time (CST) Temp. Dew Point Humidity Pressure Visibility Wind Dir Wind Speed Gust Speed Precip Events Conditions
12:41 AM 51.8 °F 39.2 °F 62% 30.25 in 10.0 mi NW 5.8 mph - N/A   Scattered Clouds
1:42 AM 50.0 °F 42.8 °F 76% 30.25 in 10.0 mi Calm Calm - N/A   Scattered Clouds
2:50 AM 48.2 °F 42.8 °F 82% 29.87 in 10.0 mi Calm Calm - N/A   Partly Cloudy
4:58 AM 46.4 °F 42.8 °F 87% 30.24 in 8.0 mi Calm Calm - N/A   Scattered Clouds
5:45 AM 46.4 °F 42.8 °F 87% 29.93 in 8.0 mi Calm Calm - N/A   Mostly Cloudy
6:49 AM 44.6 °F 41.0 °F 87% 30.25 in 7.0 mi Calm Calm - N/A   Mostly Cloudy
8:17 AM 44.6 °F 42.8 °F 93% 30.28 in 7.0 mi Calm Calm - N/A   Scattered Clouds
8:50 AM 54 °F 40 °F 49% 30.19 in 9 mi North 4.5 mph - -   Haze
9:40 AM 55.4 °F 42.8 °F 63% 30.30 in 10.0 mi Calm Calm - N/A   Scattered Clouds
10:40 AM 64.4 °F 39.2 °F 40% 30.30 in 12.0 mi Calm Calm - N/A   Mostly Cloudy
11:45 AM 72 °F 51 °F 36% 30.11 in 7 mi Calm Calm - -   Haze
11:45 AM 73.4 °F 32.0 °F 22% 29.87 in 15.0 mi Calm Calm - N/A   Scattered Clouds
12:42 PM 77.0 °F 28.4 °F 17% 30.22 in 15.0 mi South 10.4 mph 21.9 mph N/A   Scattered Clouds
1:50 PM 78.8 °F 28.4 °F 16% 30.18 in 15.0 mi South 8.1 mph - N/A   Mostly Cloudy
2:47 PM 78.8 °F 28.4 °F 16% 29.78 in 15.0 mi SW 11.5 mph 23.0 mph N/A   Mostly Cloudy
2:55 PM 77 °F 51 °F 29% 29.96 in 11 mi NW 8.9 mph - -   Haze
3:41 PM 78.8 °F 28.4 °F 16% 30.15 in 15.0 mi SW 11.5 mph 23.0 mph N/A   Mostly Cloudy
4:41 PM 77.0 °F 28.4 °F 17% 30.13 in 15.0 mi SW 17.3 mph - N/A   Overcast
5:45 PM 76 °F 45 °F 22% 29.81 in 9 mi WNW 6.7 mph - -   Haze
5:46 PM 75.2 °F 26.6 °F 17% 29.83 in 15.0 mi SW 10.4 mph - N/A   Overcast
6:46 PM 73.4 °F 23.0 °F 15% 30.16 in 12.0 mi SW 13.8 mph - N/A   Mostly Cloudy
7:45 PM 69.8 °F 21.2 °F 16% 30.17 in 12.0 mi SW 11.5 mph - N/A   Mostly Cloudy
8:48 PM 69.8 °F 28.4 °F 21% 29.86 in 12.0 mi Calm Calm - N/A   Mostly Cloudy
8:50 PM 70 °F 44 °F 28% 29.81 in 5 mi WNW 4.5 mph - -  
9:45 PM 68.0 °F 26.6 °F 21% 30.25 in 12.0 mi North 11.5 mph - N/A   Mostly Cloudy
10:54 PM 66.2 °F 32.0 °F 28% 30.25 in 10.0 mi Calm Calm - N/A   Mostly Cloudy
11:40 PM 64.4 °F 32.0 °F 30% 29.79 in 10.0 mi Calm Calm - N/A   Mostly Cloudy
11:50 PM 61 °F 55 °F 75% 29.86 in 5 mi WNW 2.2 mph - -